VJC801 VVTS-VTBS

Flight info

Callsign VJC801
Flight time 1h 8m
Altitude 34000
Route SAPEN7B SAPEN R468 ELMOP P629 NUGPA DCT TUMGA TUMGA1C
Aircraft A21N/M-SDE2E3FGHIRWXY/LB1

Departure

Time 2026-05-07 09:19
Airport Tan Son Nhat International Airport (VVTS)

Arrival

Time 2026-05-07 10:28
Airport Suvarnabhumi Airport (VTBS)
Time Latitude Longitude Altitude Speed Heading
2026-05-07 08:37 10.81519 106.65662 42 ft 0 kts 339°
2026-05-07 08:48 10.81519 106.65663 42 ft 0 kts 339°
2026-05-07 08:48 10.81519 106.65662 42 ft 0 kts 339°
2026-05-07 08:55 10.81519 106.65663 70 ft 0 kts 339°
2026-05-07 08:55 10.81519 106.65662 70 ft 0 kts 339°
2026-05-07 08:57 10.81519 106.65663 70 ft 0 kts 339°
2026-05-07 08:58 10.81519 106.65662 70 ft 0 kts 339°
2026-05-07 09:14 10.81531 106.65658 41 ft 3 kts 339°
2026-05-07 09:14 10.81567 106.65648 42 ft 7 kts
2026-05-07 09:14 10.81605 106.65695 42 ft 10 kts 71°
2026-05-07 09:15 10.81635 106.65775 42 ft 13 kts 68°
2026-05-07 09:15 10.81714 106.65795 39 ft 14 kts 353°
2026-05-07 09:15 10.81782 106.65861 41 ft 16 kts 71°
2026-05-07 09:15 10.81822 106.65968 42 ft 17 kts 69°
2026-05-07 09:16 10.81866 106.66084 41 ft 18 kts 69°
2026-05-07 09:16 10.81911 106.66204 41 ft 19 kts 69°
2026-05-07 09:16 10.81959 106.66333 42 ft 20 kts 69°
2026-05-07 09:16 10.82010 106.66467 40 ft 21 kts 69°
2026-05-07 09:17 10.82063 106.66606 39 ft 21 kts 68°
2026-05-07 09:17 10.82117 106.66750 38 ft 22 kts 69°
2026-05-07 09:17 10.82174 106.66900 38 ft 23 kts 69°
2026-05-07 09:17 10.82207 106.66989 41 ft 10 kts 68°
2026-05-07 09:18 10.82274 106.67005 41 ft 12 kts 336°
2026-05-07 09:18 10.82336 106.66951 40 ft 13 kts 315°
2026-05-07 09:18 10.82348 106.66890 40 ft 10 kts 248°
2026-05-07 09:18 10.82288 106.66737 37 ft 50 kts 249°
2026-05-07 09:19 10.82076 106.66177 43 ft 119 kts 247°
2026-05-07 09:19 10.81709 106.65199 44 ft 173 kts 249°
2026-05-07 09:19 10.81277 106.64013 449 ft 176 kts 246°
2026-05-07 09:19 10.80829 106.62820 861 ft 185 kts 246°
2026-05-07 09:20 10.80366 106.61581 1382 ft 188 kts 248°
2026-05-07 09:20 10.79908 106.60338 1880 ft 195 kts 246°
2026-05-07 09:20 10.79407 106.58999 2284 ft 209 kts 246°
2026-05-07 09:20 10.78875 106.57568 2736 ft 222 kts 248°
2026-05-07 09:21 10.78315 106.56044 3189 ft 238 kts 251°
2026-05-07 09:21 10.78189 106.54301 3456 ft 263 kts 283°
2026-05-07 09:21 10.78964 106.52569 3964 ft 277 kts 306°
2026-05-07 09:21 10.80086 106.50972 4766 ft 277 kts 308°
2026-05-07 09:22 10.81224 106.49373 5492 ft 281 kts 308°
2026-05-07 09:22 10.82361 106.47745 6203 ft 284 kts 307°
2026-05-07 09:22 10.83495 106.46088 6914 ft 287 kts 307°
2026-05-07 09:22 10.84632 106.44405 7580 ft 290 kts 307°
2026-05-07 09:23 10.85778 106.42694 8208 ft 295 kts 306°
2026-05-07 09:23 10.86932 106.40955 8865 ft 298 kts 305°
2026-05-07 09:23 10.88108 106.39189 9484 ft 302 kts 305°
2026-05-07 09:23 10.89297 106.37408 10003 ft 310 kts 306°
2026-05-07 09:24 10.90521 106.35573 10298 ft 325 kts 305°
2026-05-07 09:24 10.91825 106.33618 10567 ft 340 kts 305°
2026-05-07 09:24 10.93182 106.31584 10886 ft 352 kts 305°
2026-05-07 09:24 10.94573 106.29496 11387 ft 358 kts 305°
2026-05-07 09:25 10.95956 106.27413 11974 ft 360 kts 305°
2026-05-07 09:25 10.97384 106.25265 12572 ft 363 kts 305°
2026-05-07 09:25 10.98806 106.23129 13147 ft 366 kts 305°
2026-05-07 09:25 11.00219 106.21002 13692 ft 370 kts 305°
2026-05-07 09:26 11.01662 106.18815 14191 ft 373 kts 304°
2026-05-07 09:26 11.02847 106.16457 14676 ft 377 kts 293°
2026-05-07 09:26 11.03805 106.13961 15173 ft 380 kts 291°
2026-05-07 09:26 11.04757 106.11432 15669 ft 383 kts 291°
2026-05-07 09:27 11.05731 106.08890 16157 ft 387 kts 292°
2026-05-07 09:27 11.06728 106.06334 16637 ft 390 kts 292°
2026-05-07 09:27 11.08747 106.01194 17573 ft 396 kts 292°
2026-05-07 09:28 11.09777 105.98576 18038 ft 400 kts 292°
2026-05-07 09:28 11.10645 105.95879 18418 ft 402 kts 281°
2026-05-07 09:28 11.10776 105.93030 18820 ft 403 kts 263°
2026-05-07 09:28 11.10388 105.90196 19244 ft 405 kts 260°
2026-05-07 09:29 11.09929 105.87351 19657 ft 407 kts 259°
2026-05-07 09:29 11.09486 105.84533 20059 ft 409 kts 260°
2026-05-07 09:29 11.09052 105.81658 20476 ft 412 kts 261°
2026-05-07 09:29 11.08630 105.78757 20886 ft 414 kts 261°
2026-05-07 09:30 11.08211 105.75850 21286 ft 416 kts 261°
2026-05-07 09:30 11.07789 105.72928 21685 ft 418 kts 261°
2026-05-07 09:30 11.07452 105.69972 22063 ft 421 kts 267°
2026-05-07 09:30 11.07694 105.67006 22423 ft 424 kts 282°
2026-05-07 09:31 11.08570 105.64131 22825 ft 426 kts 289°
2026-05-07 09:31 11.09602 105.61291 23201 ft 428 kts 290°
2026-05-07 09:31 11.10643 105.58442 23527 ft 430 kts 290°
2026-05-07 09:31 11.11658 105.55603 23837 ft 432 kts 290°
2026-05-07 09:32 11.12671 105.52714 24155 ft 434 kts 289°
2026-05-07 09:32 11.13687 105.49801 24467 ft 435 kts 289°
2026-05-07 09:32 11.14700 105.46886 24783 ft 437 kts 289°
2026-05-07 09:32 11.15718 105.43958 25080 ft 439 kts 289°
2026-05-07 09:33 11.16739 105.41022 25395 ft 440 kts 289°
2026-05-07 09:33 11.17753 105.38106 25670 ft 442 kts 289°
2026-05-07 09:33 11.18782 105.35149 25961 ft 444 kts 289°
2026-05-07 09:33 11.19815 105.32175 26270 ft 445 kts 289°
2026-05-07 09:34 11.20854 105.29187 26548 ft 447 kts 289°
2026-05-07 09:34 11.21897 105.26184 26840 ft 449 kts 289°
2026-05-07 09:34 11.22940 105.23179 27109 ft 451 kts 290°
2026-05-07 09:34 11.23976 105.20195 27367 ft 453 kts 289°
2026-05-07 09:35 11.25025 105.17167 27610 ft 455 kts 289°
2026-05-07 09:35 11.26080 105.14115 27886 ft 456 kts 289°
2026-05-07 09:35 11.27141 105.11061 28183 ft 458 kts 289°
2026-05-07 09:35 11.28202 105.07994 28475 ft 458 kts 289°
2026-05-07 09:36 11.29256 105.04949 28732 ft 459 kts 289°
2026-05-07 09:36 11.30327 105.01864 28961 ft 461 kts 289°
2026-05-07 09:36 11.31405 104.98758 29202 ft 463 kts 289°
2026-05-07 09:36 11.32468 104.95692 29435 ft 464 kts 289°
2026-05-07 09:37 11.33544 104.92590 29692 ft 465 kts 290°
2026-05-07 09:37 11.34839 104.89553 29879 ft 467 kts 299°
2026-05-07 09:37 11.36513 104.86699 30075 ft 468 kts 302°
2026-05-07 09:37 11.38231 104.83921 30289 ft 469 kts 302°
2026-05-07 09:38 11.39994 104.81082 30523 ft 469 kts 302°
2026-05-07 09:38 11.41708 104.78309 30737 ft 469 kts 302°
2026-05-07 09:38 11.43447 104.75489 30977 ft 468 kts 302°
2026-05-07 09:38 11.45179 104.72675 31238 ft 467 kts 302°
2026-05-07 09:39 11.46901 104.69867 31470 ft 466 kts 302°
2026-05-07 09:39 11.48622 104.67055 31712 ft 465 kts 302°
2026-05-07 09:39 11.50334 104.64258 31964 ft 464 kts 302°
2026-05-07 09:39 11.52028 104.61500 32214 ft 463 kts 302°
2026-05-07 09:40 11.53735 104.58718 32439 ft 463 kts 302°
2026-05-07 09:40 11.55449 104.55923 32671 ft 462 kts 302°
2026-05-07 09:40 11.57148 104.53147 32901 ft 461 kts 302°
2026-05-07 09:40 11.58850 104.50366 33119 ft 460 kts 302°
2026-05-07 09:41 11.60524 104.47630 33330 ft 459 kts 302°
2026-05-07 09:41 11.62213 104.44872 33554 ft 458 kts 302°
2026-05-07 09:41 11.63901 104.42113 33734 ft 458 kts 302°
2026-05-07 09:42 11.67265 104.36600 33764 ft 456 kts 302°
2026-05-07 09:42 11.70614 104.31109 33751 ft 455 kts 302°
2026-05-07 09:43 11.73966 104.25619 33749 ft 455 kts 302°
2026-05-07 09:43 11.76756 104.21053 33759 ft 456 kts 302°
2026-05-07 09:44 11.80665 104.14646 33764 ft 458 kts 302°
2026-05-07 09:44 11.83463 104.10062 33762 ft 458 kts 302°
2026-05-07 09:45 11.86812 104.04525 33774 ft 458 kts 298°
2026-05-07 09:45 11.87936 104.01493 33767 ft 457 kts 282°
2026-05-07 09:45 11.88212 103.98268 33773 ft 457 kts 266°
2026-05-07 09:46 11.87274 103.91882 33786 ft 457 kts 269°
2026-05-07 09:46 11.87591 103.88658 33789 ft 457 kts 283°
2026-05-07 09:46 11.88585 103.85579 33795 ft 457 kts 295°
2026-05-07 09:47 11.91866 103.79983 33795 ft 460 kts 302°
2026-05-07 09:47 11.95306 103.74481 33803 ft 460 kts 302°
2026-05-07 09:48 11.98685 103.68919 33802 ft 460 kts 301°
2026-05-07 09:48 12.02039 103.63380 33807 ft 460 kts 301°
2026-05-07 09:49 12.05413 103.57818 33810 ft 461 kts 301°
2026-05-07 09:49 12.08783 103.52254 33808 ft 457 kts 302°
2026-05-07 09:50 12.12106 103.46753 33813 ft 457 kts 302°
2026-05-07 09:50 12.15464 103.41216 33807 ft 458 kts 302°
2026-05-07 09:51 12.18826 103.35660 33808 ft 458 kts 302°
2026-05-07 09:51 12.22158 103.30148 33807 ft 458 kts 302°
2026-05-07 09:52 12.25512 103.24593 33808 ft 458 kts 302°
2026-05-07 09:52 12.28868 103.19038 33816 ft 458 kts 302°
2026-05-07 09:53 12.32204 103.13516 33802 ft 458 kts 302°
2026-05-07 09:53 12.35550 103.07967 33800 ft 459 kts 301°
2026-05-07 09:54 12.38917 103.02380 33807 ft 460 kts 301°
2026-05-07 09:54 12.42278 102.96795 33808 ft 460 kts 301°
2026-05-07 09:55 12.45607 102.91250 33803 ft 460 kts 301°
2026-05-07 09:55 12.48945 102.85715 33798 ft 451 kts 302°
2026-05-07 09:56 12.52237 102.80238 33795 ft 452 kts 302°
2026-05-07 09:56 12.55520 102.74776 33795 ft 452 kts 301°
2026-05-07 09:57 12.58824 102.69286 33797 ft 452 kts 301°
2026-05-07 09:57 12.62106 102.63813 33791 ft 450 kts 301°
2026-05-07 09:58 12.65370 102.58374 33799 ft 451 kts 301°
2026-05-07 09:58 12.68660 102.52880 33793 ft 451 kts 301°
2026-05-07 09:59 12.71060 102.46971 33787 ft 452 kts 280°
2026-05-07 09:59 12.71433 102.40583 33797 ft 450 kts 270°
2026-05-07 10:00 12.71398 102.34137 33792 ft 453 kts 269°
2026-05-07 10:00 12.71334 102.27687 33787 ft 452 kts 269°
2026-05-07 10:01 12.71267 102.21230 33794 ft 453 kts 269°
2026-05-07 10:01 12.71203 102.14815 33786 ft 452 kts 269°
2026-05-07 10:02 12.71142 102.08377 33783 ft 453 kts 269°
2026-05-07 10:02 12.71405 102.05165 33779 ft 453 kts 281°
2026-05-07 10:02 12.72114 102.02015 33785 ft 455 kts 283°
2026-05-07 10:03 12.73681 101.95726 33783 ft 455 kts 284°
2026-05-07 10:03 12.74445 101.92601 33621 ft 449 kts 283°
2026-05-07 10:03 12.75192 101.89509 33320 ft 446 kts 283°
2026-05-07 10:03 12.75926 101.86430 33053 ft 444 kts 283°
2026-05-07 10:04 12.76654 101.83360 32802 ft 443 kts 283°
2026-05-07 10:04 12.77378 101.80298 32560 ft 442 kts 283°
2026-05-07 10:04 12.78108 101.77236 32313 ft 441 kts 284°
2026-05-07 10:04 12.78829 101.74221 32074 ft 440 kts 284°
2026-05-07 10:05 12.79555 101.71176 31833 ft 438 kts 284°
2026-05-07 10:05 12.80279 101.68148 31557 ft 437 kts 285°
2026-05-07 10:05 12.81414 101.65289 31023 ft 431 kts 303°
2026-05-07 10:05 12.83223 101.62863 30458 ft 426 kts 313°
2026-05-07 10:06 12.85231 101.60641 29909 ft 423 kts 315°
2026-05-07 10:06 12.87215 101.58471 29268 ft 421 kts 314°
2026-05-07 10:06 12.89196 101.56270 28654 ft 419 kts 314°
2026-05-07 10:06 12.91151 101.54066 28100 ft 415 kts 313°
2026-05-07 10:07 12.93096 101.51871 27573 ft 411 kts 313°
2026-05-07 10:07 12.95006 101.49705 27053 ft 408 kts 313°
2026-05-07 10:07 12.96906 101.47544 26531 ft 407 kts 313°
2026-05-07 10:07 12.98797 101.45389 26004 ft 406 kts 313°
2026-05-07 10:08 13.00655 101.43268 25506 ft 405 kts 313°
2026-05-07 10:08 13.02538 101.41123 25014 ft 404 kts 313°
2026-05-07 10:08 13.04414 101.38981 24525 ft 403 kts 313°
2026-05-07 10:08 13.06281 101.36850 24000 ft 401 kts 313°
2026-05-07 10:09 13.08148 101.34724 23487 ft 399 kts 313°
2026-05-07 10:09 13.10004 101.32607 22916 ft 397 kts 313°
2026-05-07 10:09 13.11847 101.30503 22369 ft 394 kts 313°
2026-05-07 10:09 13.13674 101.28417 21826 ft 392 kts 313°
2026-05-07 10:10 13.15491 101.26341 21313 ft 388 kts 313°
2026-05-07 10:10 13.17286 101.24290 20797 ft 385 kts 313°
2026-05-07 10:10 13.19071 101.22252 20304 ft 382 kts 313°
2026-05-07 10:10 13.20847 101.20223 19820 ft 379 kts 313°
2026-05-07 10:11 13.22574 101.18248 19369 ft 375 kts 313°
2026-05-07 10:11 13.24311 101.16262 18920 ft 372 kts 313°
2026-05-07 10:11 13.26034 101.14291 18460 ft 369 kts 313°
2026-05-07 10:11 13.27738 101.12341 18033 ft 365 kts 312°
2026-05-07 10:12 13.29432 101.10403 17547 ft 361 kts 312°
2026-05-07 10:12 13.31094 101.08495 17085 ft 357 kts 313°
2026-05-07 10:12 13.32745 101.06605 16655 ft 352 kts 313°
2026-05-07 10:12 13.34353 101.04763 16235 ft 348 kts 313°
2026-05-07 10:13 13.35967 101.02914 15839 ft 346 kts 313°
2026-05-07 10:13 13.37578 101.01071 15456 ft 346 kts 313°
2026-05-07 10:13 13.39189 100.99228 15073 ft 347 kts 313°
2026-05-07 10:13 13.40804 100.97378 14673 ft 348 kts 313°
2026-05-07 10:14 13.42428 100.95514 14252 ft 350 kts 313°
2026-05-07 10:14 13.44062 100.93642 13841 ft 353 kts 313°
2026-05-07 10:14 13.45687 100.91780 13412 ft 355 kts 313°
2026-05-07 10:14 13.47332 100.89894 12957 ft 351 kts 313°
2026-05-07 10:15 13.48951 100.88034 12528 ft 346 kts 313°
2026-05-07 10:15 13.50526 100.86223 12155 ft 340 kts 313°
2026-05-07 10:15 13.52089 100.84426 11814 ft 333 kts 313°
2026-05-07 10:15 13.53650 100.82698 11435 ft 326 kts 320°
2026-05-07 10:16 13.55567 100.81537 11048 ft 316 kts 345°
2026-05-07 10:16 13.57694 100.81396 10761 ft 302 kts 13°
2026-05-07 10:16 13.59695 100.81940 10425 ft 295 kts 19°
2026-05-07 10:16 13.61621 100.82550 10087 ft 292 kts 18°
2026-05-07 10:17 13.63574 100.83145 9718 ft 293 kts 18°
2026-05-07 10:17 13.65535 100.83716 9332 ft 293 kts 18°
2026-05-07 10:17 13.67510 100.84275 8950 ft 293 kts 17°
2026-05-07 10:17 13.69467 100.84824 8588 ft 289 kts 16°
2026-05-07 10:18 13.71401 100.85359 8205 ft 286 kts 17°
2026-05-07 10:18 13.73322 100.85889 7856 ft 286 kts 17°
2026-05-07 10:18 13.75229 100.86413 7499 ft 284 kts 17°
2026-05-07 10:18 13.77124 100.86931 7142 ft 281 kts 17°
2026-05-07 10:19 13.78983 100.87449 6923 ft 272 kts 17°
2026-05-07 10:19 13.80776 100.87955 6772 ft 261 kts 18°
2026-05-07 10:19 13.82496 100.88435 6610 ft 250 kts 17°
2026-05-07 10:19 13.84153 100.88896 6345 ft 243 kts 17°
2026-05-07 10:20 13.85776 100.89346 5985 ft 240 kts 17°
2026-05-07 10:20 13.87383 100.89788 5591 ft 238 kts 17°
2026-05-07 10:20 13.88941 100.90218 5207 ft 236 kts 17°
2026-05-07 10:20 13.90542 100.90657 4816 ft 234 kts 16°
2026-05-07 10:21 13.92149 100.90918 4386 ft 236 kts 355°
2026-05-07 10:21 13.93710 100.90390 3939 ft 240 kts 326°
2026-05-07 10:21 13.94840 100.89137 3496 ft 240 kts 296°
2026-05-07 10:21 13.95307 100.87542 3229 ft 232 kts 274°
2026-05-07 10:22 13.95077 100.85961 2978 ft 221 kts 244°
2026-05-07 10:22 13.94131 100.84771 2632 ft 214 kts 214°
2026-05-07 10:22 13.92873 100.83973 2304 ft 210 kts 210°
2026-05-07 10:22 13.91626 100.83226 2028 ft 204 kts 209°
2026-05-07 10:23 13.90397 100.82497 1982 ft 203 kts 209°
2026-05-07 10:23 13.89164 100.81758 1973 ft 206 kts 210°
2026-05-07 10:23 13.87886 100.81092 1968 ft 198 kts 200°
2026-05-07 10:23 13.86634 100.80702 2012 ft 183 kts 193°
2026-05-07 10:24 13.85420 100.80394 2009 ft 179 kts 194°
2026-05-07 10:24 13.84209 100.80077 1999 ft 178 kts 194°
2026-05-07 10:24 13.83025 100.79764 2010 ft 177 kts 194°
2026-05-07 10:24 13.81832 100.79449 2003 ft 177 kts 195°
2026-05-07 10:25 13.80633 100.79131 1996 ft 178 kts 195°
2026-05-07 10:25 13.79441 100.78816 1972 ft 178 kts 195°
2026-05-07 10:25 13.78236 100.78498 1806 ft 178 kts 195°
2026-05-07 10:25 13.77038 100.78181 1596 ft 176 kts 195°
2026-05-07 10:26 13.75863 100.77871 1363 ft 169 kts 195°
2026-05-07 10:26 13.74801 100.77591 1148 ft 147 kts 197°
2026-05-07 10:26 13.73852 100.77340 948 ft 140 kts 197°
2026-05-07 10:26 13.72903 100.77089 783 ft 140 kts 194°
2026-05-07 10:27 13.72279 100.76923 687 ft 139 kts 193°
2026-05-07 10:27 13.71012 100.76585 400 ft 140 kts 191°
2026-05-07 10:27 13.70078 100.76337 239 ft 142 kts 190°
2026-05-07 10:27 13.69113 100.76087 63 ft 143 kts 191°
2026-05-07 10:28 13.68471 100.75917 28 ft 136 kts 190°
2026-05-07 10:28 13.67671 100.75710 16 ft 94 kts 194°
2026-05-07 10:28 13.67245 100.75576 18 ft 34 kts 213°
2026-05-07 10:28 13.67174 100.75525 18 ft 5 kts 218°
2026-05-07 10:29 13.67142 100.75495 19 ft 7 kts 223°
2026-05-07 10:29 13.67101 100.75455 20 ft 9 kts 223°
2026-05-07 10:29 13.67088 100.75391 18 ft 11 kts 297°
2026-05-07 10:30 13.67246 100.75406 18 ft 14 kts 14°
2026-05-07 10:30 13.67344 100.75432 18 ft 15 kts 14°
2026-05-07 10:30 13.67453 100.75461 18 ft 17 kts 14°
2026-05-07 10:30 13.67571 100.75492 18 ft 18 kts 14°
2026-05-07 10:31 13.67698 100.75526 18 ft 20 kts 14°
2026-05-07 10:31 13.67834 100.75561 18 ft 21 kts 14°
2026-05-07 10:31 13.67980 100.75600 18 ft 22 kts 15°
2026-05-07 10:31 13.68126 100.75639 18 ft 22 kts 14°
2026-05-07 10:32 13.68280 100.75679 19 ft 23 kts 15°
2026-05-07 10:32 13.68436 100.75721 19 ft 24 kts 13°
2026-05-07 10:32 13.68598 100.75762 19 ft 24 kts 14°
2026-05-07 10:32 13.68763 100.75808 19 ft 25 kts 16°
2026-05-07 10:33 13.68931 100.75851 19 ft 25 kts 14°
2026-05-07 10:33 13.69074 100.75884 19 ft 15 kts 338°
2026-05-07 10:33 13.69123 100.75794 19 ft 15 kts 282°
2026-05-07 10:33 13.69138 100.75696 18 ft 12 kts 231°
2026-05-07 10:34 13.69085 100.75676 18 ft 5 kts 194°
2026-05-07 10:34 13.69069 100.75672 18 ft 2 kts 194°
2026-05-07 10:34 13.69068 100.75672 18 ft 0 kts 194°